GW0587 Weather Reports


Display with metric or nautical units.
time (UTC)temp
F
wind
direction
speed
MPH
gust
MPH
rain 1hr
in
rain 24hr
in
rain mn
in
humidity
%
barometer
mb
20260903123100 78 0 0.0 0.0 0.00 0.00 0.00 81 1017.4
20260903121546 77 0 0.0 0.0 0.00 0.00 0.00 83 1017.2
20260903120054 76 0 0.0 0.0 0.00 0.00 0.00 83 1017.1
20260903114549 76 0 0.0 0.0 0.00 0.00 0.00 83 1016.8
20260903113049 76 0 0.0 0.0 0.00 0.00 0.00 82 1016.7
20260903111606 77 0 0.0 0.0 0.00 0.00 0.00 81 1016.6
20260903110052 77 0 0.0 0.0 0.00 0.00 0.00 81 1016.6
20260903104622 77 0 0.0 0.0 0.00 0.00 0.00 80 1016.4
20260903103106 77 0 0.0 0.0 0.00 0.00 0.00 80 1016.4
20260903101558 78 0 0.0 0.0 0.00 0.00 0.00 80 1016.3
20260903100052 78 0 0.0 0.0 0.00 0.00 0.00 79 1016.3
20260903094550 78 0 0.0 0.0 0.00 0.00 0.00 78 1016.1
20260903093106 78 0 0.0 0.0 0.00 0.00 0.00 78 1016.1
20260903091555 78 0 0.0 0.0 0.00 0.00 0.00 77 1016.1
20260903090052 79 0 0.0 0.0 0.00 0.00 0.00 77 1016.2
20260903084550 79 0 0.0 0.0 0.00 0.00 0.00 77 1016.2
20260903083104 79 0 0.0 0.0 0.00 0.00 0.00 76 1016.1
20260903081608 80 0 0.0 0.0 0.00 0.00 0.00 75 1015.9
20260903080047 80 0 0.0 0.0 0.00 0.00 0.00 75 1015.8
20260903074557 80 0 0.0 0.0 0.00 0.00 0.00 75 1015.9
20260903073053 80 0 0.0 0.0 0.00 0.00 0.00 75 1016.0
20260903071553 81 0 0.0 0.0 0.00 0.00 0.00 74 1016.0
20260903070048 81 0 0.0 0.0 0.00 0.00 0.00 74 1016.1
20260903064555 81 0 0.0 0.0 0.00 0.00 0.00 73 1015.9
20260903063053 81 0 0.0 0.0 0.00 0.00 0.00 73 1016.2
20260903061547 82 0 0.0 0.0 0.00 0.00 0.00 72 1016.3
20260903060057 82 0 0.0 0.0 0.00 0.00 0.00 72 1016.3
20260903054601 82 0 0.0 0.0 0.00 0.00 0.00 71 1016.2
20260903053101 82 0 0.0 0.0 0.00 0.00 0.00 72 1016.0
20260903051554 82 0 0.0 0.0 0.00 0.00 0.00 72 1016.1
20260903050049 82 0 0.0 0.0 0.00 0.00 0.00 71 1016.1
20260903044549 83 0 0.0 0.0 0.00 0.00 0.00 71 1015.9
20260903043047 83 0 0.0 0.0 0.00 0.00 0.00 71 1015.8
20260903041554 83 0 0.0 0.0 0.00 0.00 0.00 71 1015.8
20260903040051 83 0 0.0 0.0 0.00 0.00 0.00 70 1015.9
20260903034548 84 0 0.0 0.0 0.00 0.00 0.00 69 1015.8
20260903033101 84 0 0.0 0.0 0.00 0.00 0.00 68 1015.8
20260903031553 85 0 0.0 0.0 0.00 0.00 0.00 67 1016.0
20260903030055 85 0 0.0 0.0 0.00 0.00 0.00 67 1016.1
20260903024548 86 0 0.0 0.0 0.00 0.00 0.00 66 1016.1
20260903023057 86 0 0.0 0.0 0.00 0.00 0.00 66 1015.8
20260903021551 86 0 0.0 0.0 0.00 0.00 0.00 66 1015.8
20260903014548 86 0 0.0 0.0 0.00 0.00 0.00 66 1015.4
20260903013056 87 0 0.0 0.0 0.00 0.00 0.00 64 1015.2
20260903011549 88 0 0.0 0.0 0.00 0.00 0.00 63 1015.2
20260903010048 89 0 0.0 0.0 0.00 0.00 0.00 62 1015.0
20260903004604 90 0 0.0 0.0 0.00 0.00 0.00 60 1015.0
20260903003052 91 0 0.0 0.0 0.00 0.00 0.00 58 1014.9
20260903001604 92 0 0.0 0.0 0.00 0.00 0.00 57 1014.9
20260903000054 93 0 0.0 0.0 0.00 0.00 0.00 56 1014.9
20260902234556 95 0 0.0 0.0 0.00 0.00 0.00 54 1015.1
20260902233103 96 0 0.0 0.0 0.00 0.00 0.00 49 1015.0
20260902231554 96 0 0.0 0.0 0.00 0.00 0.00 49 1015.1
20260902230049 97 0 0.0 3.0 0.00 0.00 0.00 47 1015.0
20260902224557 97 0 0.0 3.0 0.00 0.00 0.00 48 1014.9
20260902223054 97 0 0.0 3.0 0.00 0.00 0.00 46 1015.2
20260902221609 98 0 1.0 6.0 0.00 0.00 0.00 46 1015.3
20260902220056 98 0 0.0 2.0 0.00 0.00 0.00 44 1015.3
20260902214556 98 0 0.0 5.0 0.00 0.00 0.00 43 1015.3
20260902213056 98 286 1.0 4.0 0.00 0.00 0.00 44 1015.4
20260902211556 98 302 1.0 8.0 0.00 0.00 0.00 43 1015.4
20260902210100 98 244 0.0 5.0 0.00 0.00 0.00 45 1015.5
20260902204607 99 0 1.0 4.0 0.00 0.00 0.00 42 1015.7
20260902203056 99 0 0.0 7.0 0.00 0.00 0.00 41 1015.8
20260902201601 99 111 0.0 4.0 0.00 0.00 0.00 42 1016.0
20260902200058 98 109 1.0 8.0 0.00 0.00 0.00 44 1016.1
20260902194559 97 0 1.0 4.0 0.00 0.00 0.00 47 1016.3
20260902193055 98 248 1.0 4.0 0.00 0.00 0.00 46 1016.6
20260902191600 99 0 0.0 3.0 0.00 0.00 0.00 45 1016.8
20260902190050 99 249 1.0 5.0 0.00 0.00 0.00 44 1017.0
20260902184602 99 192 0.0 5.0 0.00 0.00 0.00 44 1017.0
20260902183134 101 158 1.0 6.0 0.00 0.00 0.00 42 1017.4
20260902181559 99 0 0.0 4.0 0.00 0.00 0.00 44 1017.4
20260902180054 99 110 1.0 5.0 0.00 0.00 0.00 44 1017.6
20260902174558 98 126 1.0 7.0 0.00 0.00 0.00 46 1017.9
20260902173101 97 133 2.0 7.0 0.00 0.00 0.00 47 1018.2
20260902171615 98 80 0.0 6.0 0.00 0.00 0.00 47 1018.3
20260902170049 97 78 2.0 10.0 0.00 0.00 0.00 47 1018.5
20260902164600 96 0 1.0 4.0 0.00 0.00 0.00 51 1018.6
20260902163052 95 100 2.0 7.0 0.00 0.00 0.00 52 1018.7
20260902161550 96 0 0.0 4.0 0.00 0.00 0.00 52 1019.2
20260902160051 94 5 1.0 4.0 0.00 0.00 0.00 56 1019.1
20260902154554 93 17 2.0 5.0 0.00 0.00 0.00 56 1018.9
20260902153052 94 0 1.0 3.0 0.00 0.00 0.00 56 1019.1
20260902151548 93 55 2.0 4.0 0.00 0.00 0.00 56 1019.1
20260902150047 93 0 1.0 4.0 0.00 0.00 0.00 58 1019.3
20260902144603 93 0 1.0 3.0 0.00 0.00 0.00 58 1019.2
20260902143054 92 0 0.0 2.0 0.00 0.00 0.00 59 1019.1
20260902141559 90 0 0.0 1.0 0.00 0.00 0.00 62 1019.3
20260902140047 89 153 0.0 4.0 0.00 0.00 0.00 64 1019.3
20260902134555 88 0 0.0 0.0 0.00 0.00 0.00 66 1019.3
20260902133049 87 0 0.0 0.0 0.00 0.00 0.00 67 1019.3
20260902131606 85 0 0.0 0.0 0.00 0.00 0.00 70 1019.3
20260902130056 83 0 0.0 0.0 0.00 0.00 0.00 73 1019.2
20260902124556 81 0 0.0 0.0 0.00 0.00 0.00 77 1019.0